Погода в Тируванантапураме

Индия     8°29′22″N   76°56′47″E
темп.,
°C
ветер,
м/с
пор.,
м/с
влажн.,
%
обл.,
%
осадки,
мм/ч
давл.,
гПа
погр.,
м
18 мая, вт
вт1823:30+25ссз11914 0.3 101042
02:30+25ссз119317 0.3 100840
05:30+24с11938 1.0 100821
08:30+28сз127521 0.1 1010515
11:30+32з345910 0.1 10091435
14:30+32зсз44572 0.0 10071484
17:30+29з34714 0.0 1007768
20:30+27зсз11851 0.1 100929
19 мая, ср
ср1923:30+25зсз119141 1.6 101029
02:30+25ссз119159 2.2 100818
05:30+24с1193100 2.6 100827
08:30+28з127757 1.1 1010567
11:30+31зюз3462100 2.1 10091305
14:30+30з4466100 1.1 10071157
17:30+27зсз2484100 5.2 1008482
20:30+25сз139493 5.9 101072
20 мая, чт
чт2023:30+25ссз1194100 9.9 101043
02:30+25ссз1292100 1.3 100852
05:30+25с1393100 1.4 100972
08:30+25ссз1292100 0.0 1011103
11:30+28сз2379100 0.1 1010442
14:30+30зсз346998 1.1 10081044
17:30+27сз248298 2.3 1008293
20:30+25сз119153 1.3 101026
21 мая, пт
пт2123:30+25ссз2293100 2.3 101163
02:30+25с1293100 0.5 100856
05:30+24ссз2393100 0.6 100978
08:30+25с1292100 0.1 101271
11:30+30сз227121 0.2 1011787
14:30+30з336621 1.4 10081168
17:30+28зсз24776 2.4 1009410
20:30+25с1190100 0.8 101125
22 мая, сб
сб2223:30+25с1192100 1.0 101118
02:30+24с1193100 0.0 100926
05:30+24с119397 0.1 100913
08:30+28ссз117955 0.3 1011375
11:30+31з346577 1.8 10101362
14:30+30з346815 2.4 10081030
17:30+28з24795 3.6 1008501
20:30+25сз119016 1.3 101019